www.pogodaiklimat.ru

Погода и климат >> Архив погоды >> Австралия >> Квинсленд >> Остров Лоу


ПОГОДА на Острове Лоу

  • Прогноз погоды на Острове Лоу
  • Монитор погоды на Острове Лоу

АРХИВ ПОГОДЫ на Острове Лоу

Время (UTC), дата Ветер
(напр.,м/с)
 
Видим.   Явления Облачность Т
(С)
Тd
(С)
f
(%)
Тe
(С)
Тes
(С)
Комфортность P
(гПа)
Po
(гПа)
Тmin
(С)
Tmax
(С)
R
(мм)
R24
(мм)
S
(см)
08 11.02 С 7 н/о н/о +31.0 +26.5 77 +47 +47 опасность
перегрева
1004.7 1004.3
11 11.02 С 3 н/о н/о +29.5 +27.7 90 +48 +48 опасность
перегрева
1007.0 1006.6
14 11.02 Ю 4 н/о н/о +29.5 +27.7 90 +48 +48 опасность
перегрева
1007.9 1007.5 +36.5
17 11.02 ЮЗ 3 н/о н/о +28.3 +24.1 78 +39 +39 очень
душно
1006.3 1005.9
20 11.02 З 3 н/о н/о +27.1 +23.8 82 +37 +37 очень
душно
1006.7 1006.3
23 11.02 З 2 н/о н/о +29.8 +23.5 69 +40 +40 очень
душно
1008.3 1007.9
02 12.02 З 3 н/о н/о +34.5 +20.1 43 +41 +41 опасность
перегрева
1006.9 1006.5 +26.2
05 12.02 С 7 н/о н/о +32.5 +24.3 62 +45 +45 опасность
перегрева
1004.7 1004.3
08 12.02 С 9 н/о н/о +30.3 +24.7 72 +43 +43 опасность
перегрева
1004.8 1004.4
11 12.02 С 7 н/о н/о +29.4 +26.4 84 +45 +45 опасность
перегрева
1006.8 1006.4
14 12.02 СЗ 5 н/о н/о +28.2 +25.0 83 +41 +41 опасность
перегрева
1007.6 1007.2 +35.5
17 12.02 З 5 н/о н/о +27.2 +24.8 87 +39 +39 очень
душно
1006.1 1005.7
20 12.02 СЗ 4 н/о н/о +26.1 +21.7 77 +34 +34 очень
душно
1007.1 1006.7
23 12.02 З 7 н/о н/о +29.7 +23.4 69 +40 +40 очень
душно
1008.9 1008.5
02 13.02 ЮЗ 2 н/о н/о +33.5 +24.7 60 +47 +47 опасность
перегрева
1007.4 1007.0 +25.9
05 13.02 Ю 3 н/о н/о +35.1 +22.4 48 +44 +44 опасность
перегрева
1005.2 1004.8
08 13.02 С 6 н/о н/о +30.9 +26.4 77 +47 +47 опасность
перегрева
1005.1 1004.7
11 13.02 С 3 н/о н/о +29.2 +26.2 84 +44 +44 опасность
перегрева
1007.1 1006.7
14 13.02 СЗ 5 н/о н/о +28.7 +24.5 78 +41 +41 опасность
перегрева
1007.4 1007.0 +36.7
17 13.02 З 4 н/о н/о +28.4 +24.8 81 +41 +41 опасность
перегрева
1006.0 1005.6
20 13.02 З 5 н/о н/о +28.9 +24.2 76 +40 +40 очень
душно
1006.6 1006.2
23 13.02 ЮЗ 3 н/о н/о +29.5 +24.4 74 +41 +41 опасность
перегрева
1008.2 1007.8
02 14.02 С 3 н/о н/о +34.7 +26.1 61 +51 +51 опасность
перегрева
1007.5 1007.1 +26.4
05 14.02 С 4 н/о н/о +34.0 +26.5 65 +51 +51 опасность
перегрева
1005.5 1005.1
08 14.02 З 3 н/о н/о +31.0 +23.9 66 +43 +43 опасность
перегрева
1006.1 1005.7
11 14.02 З 6 н/о н/о +29.5 +23.0 68 +39 +39 очень
душно
1008.5 1008.1
14 14.02 ЮЗ 4 н/о н/о +29.1 +22.3 67 +38 +38 очень
душно
1009.2 1008.8 +36.7
17 14.02 ЮВ 9 н/о н/о +29.4 +24.3 74 +41 +41 опасность
перегрева
1008.8 1008.4
20 14.02 ЮВ 6 н/о н/о +29.1 +24.0 74 +40 +40 очень
душно
1010.3 1009.9
23 14.02 Ю 4 н/о н/о +29.3 +24.4 75 +41 +41 опасность
перегрева
1012.2 1011.8
02 15.02 В 7 н/о н/о +31.9 +25.0 67 +45 +45 опасность
перегрева
1012.1 1011.7 +27.8
05 15.02 В 7 н/о н/о +32.3 +24.9 65 +46 +46 опасность
перегрева
1010.2 1009.8
08 15.02 В 7 н/о н/о +29.5 +24.6 75 +42 +42 опасность
перегрева
1010.2 1009.8
11 15.02 В 7 н/о н/о +29.1 +24.2 75 +41 +41 опасность
перегрева
1012.5 1012.1
14 15.02 В 7 н/о н/о +28.3 +23.7 76 +39 +39 очень
душно
1012.7 1012.3 +33.2
17 15.02 ЮВ 8 н/о н/о +28.1 +24.3 80 +39 +39 очень
душно
1011.7 1011.3
20 15.02 ЮВ 6 н/о н/о +27.9 +23.9 79 +39 +39 очень
душно
1012.4 1012.0
23 15.02 Ю 5 н/о н/о +28.3 +22.5 71 +37 +37 очень
душно
1014.2 1013.8
02 16.02 ЮВ 6 н/о н/о +31.2 +22.8 61 +41 +41 опасность
перегрева
1013.1 1012.7 +26.4
05 16.02 В 6 н/о н/о +31.2 +22.5 60 +41 +41 опасность
перегрева
1010.4 1010.0
08 16.02 ЮВ 5 н/о н/о +29.1 +23.5 72 +40 +40 очень
душно
1009.7 1009.3
11 16.02 ЮВ 5 н/о н/о +28.7 +24.3 77 +40 +40 очень
душно
1011.8 1011.4
14 16.02 ЮВ 5 н/о н/о +27.7 +23.5 78 +38 +38 очень
душно
1011.9 1011.5 +32.4
17 16.02 Ю 4 н/о н/о +27.2 +23.0 78 +36 +36 очень
душно
1010.0 1009.6
20 16.02 Ю 4 н/о н/о +27.5 +22.7 75 +36 +36 очень
душно
1010.6 1010.2
23 16.02 ЮЗ 4 н/о н/о +27.3 +23.1 78 +37 +37 очень
душно
1012.0 1011.6
02 17.02 ЮВ 4 н/о н/о +32.0 +22.4 57 +41 +41 опасность
перегрева
1011.3 1010.9 +26.4
05 17.02 В 5 н/о н/о +31.8 +23.3 61 +43 +43 опасность
перегрева
1008.8 1008.4
08 17.02 Ю 5 н/о н/о +28.1 +24.9 83 +40 +40 очень
душно
1008.2 1007.8
11 17.02 В 3 н/о н/о +27.8 +23.2 76 +37 +37 очень
душно
1009.7 1009.3
14 17.02 Ю 4 н/о н/о +27.9 +24.1 80 +39 +39 очень
душно
1010.1 1009.7 +33.8
17 17.02 З 3 н/о н/о +27.1 +24.0 83 +37 +37 очень
душно
1008.7 1008.3
20 17.02 Ю 3 н/о н/о +26.8 +23.7 83 +37 +37 очень
душно
1009.3 1008.9
23 17.02 З 3 н/о н/о +27.5 +23.9 81 +38 +38 очень
душно
1011.3 1010.9
02 18.02 С 4 н/о н/о +32.6 +24.6 63 +46 +46 опасность
перегрева
1010.1 1009.7 +26.4
05 18.02 С 7 н/о н/о +31.8 +24.9 67 +45 +45 опасность
перегрева
1007.5 1007.1
08 18.02 С 5 н/о н/о +29.3 +24.2 74 +41 +41 опасность
перегрева
1007.5 1007.1

 

Местоположение метеостанции Остров Лоу (Квинсленд, Австралия): широта -16.38 долгота 145.57 высота над уровнем моря 4 м.

В архиве по умолчанию представлена погода на Острове Лоу за последнюю неделю. Архивные данные за месяц целиком и за предыдущие месяцы, начиная с января 2011 года, Вы можете получить, выбрав интересующий диапазон дат из раскрывающегося списка и нажав кнопку "Ввод!".


*Определитесь, кто Вы:
робот инопланетянин человек

Внимание! Время в таблицах - всемирное. Для получения местного времени необходимо прибавить поправку, которая равна 10 ч.

Смотрите также архив погоды в соседних городах и на ближайших метеорологических станциях:

Погода в Кэрнсе (Квинсленд, Австралия) (59 км)
Погода на Арлингтон рифе (Квинсленд, Австралия) (70 км)
Погода в Марибе (Квинсленд, Австралия) (78 км)
Погода в Куктауне (Квинсленд, Австралия) (112 км)
Погода в Юг Джонстон (Квинсленд, Австралия) (143 км)
Погода на Мысе Флэттери (Квинсленд, Австралия) (159 км)
Погода в Палмервилле (Квинсленд, Австралия) (166 км)
Погода на Бугенвильском рифе (Квинсленд, Австралия) (192 км)
Погода на Холмс Рифе (Квинсленд, Австралия) (244 км)
Погода в Лусинде (Квинсленд, Австралия) (254 км)

Пояснения к столбцам:

Ветер - указаны скорость ветра в м/с - средняя за 10 мин, порывы в срок и между сроками (в фигурных скобках) и направление, откуда дует ветер: С - северный, СВ - северо-восточный, В - восточный, ЮВ - юго-восточный, Ю - южный, ЮЗ - юго-западный, З - западный, СЗ - северо-западный.
Видимость - горизонтальная дальность видимости в метрах или километрах. При видимости от 1 до 10 км при отсутствии осадков обычно наблюдается дымка, при ухудшении видимости до 1 км и менее - туман. В сухую погоду видимость может ухудшаться дымом, пылью или мглою.
Явления - указаны атмосферные явления, наблюдавшиеся в срок или в последний час перед сроком; фигурными скобками обозначены явления, наблюдавшиеся между сроками (за 1-3 часа до срока); квадратными скобками обозначены град или гололедные отложения с указанием их диаметра в мм.
Облачность - указаны через наклонную черту общая и нижняя облачность в баллах и высота нижней границы облаков в метрах; квадратными скобками обозначены формы облаков: Ci - перистые, Cs - перисто-слоистые, Cc - перисто-кучевые, Ac - высококучевые, As - высокослоистые, Sc - слоисто-кучевые, Ns - слоисто-дождевые, Cu - кучевые, Cb - кучево-дождевые. Подробнее классификацию облаков см. в Атласе облаков (PDF).
T - Температура воздуха - температура, измеренная на высоте 2 м над землей.
Td - Температура точки росы - температура, при понижении до которой содержащийся в воздухе водяной пар достигнет насыщения.
f - Относительная влажность воздуха - влажноcть воздуха, измеренная на высоте 2 м над землей.
Te - Эффективная температура - температура, которую ощущает одетый по сезону человек в тени. Характеристика душности погоды. При расчете учитывается влияние влажности воздуха и скорости ветра на теплоощущения человека.
Tes - Эффективная температура на солнце - температура, которую ощущает человек, с поправкой на солнечный нагрев. Характеристика знойности погоды. Зависит от высоты солнца над горизонтом, облачности и скорости ветра. Ночью, в пасмурную погоду, а также при ветре 12 м/с и более поправка равна нулю.
P - Атмосферное давление - приведенное к уровню моря атмосферное давление.
Po - Атмосферное давление - измеренное на уровне метеостанции атмосферное давление.
Tmin - Минимальная температура - минимум температуры воздуха на высоте 2 м над землей.
Tmax - Максимальная температура - максимум температуры воздуха на высоте 2 м над землей.
R - Количество осадков - Количество выпавших осадков за период времени, мм. При наведении курсора мыши на число - период времени, за который выпало указанное количество осадков.
R24 - Количество осадков - Количество выпавших осадков за 24 часа, мм.
S - Снежный покров - Высота снежного покрова, см. При наведении курсора мыши на число - состояние снежного покрова и степень покрытия местности в баллах.